2 Line ISS Keps 10-19
18 Oct
2006
18 Oct
'06
10:56 p.m.
ISS 1 25544U 98067A 06291.94347929 .00016873 00000-0 10505-3 0 8869 2 25544 051.6335 269.8593 0013010 112.4559 342.8466 15.76990497452684
6638
Age (days ago)
6638
Last active (days ago)
0 comments
1 participants
participants (1)
-
Dave Larsen PhD